Weather observations for the past three days for
Boca Raton, Boca Raton Airport
Imperial (Metric)
Date Time (edt) Wind (mph) Vis. (mi.) Weather Sky Cond. Temperature (ºF) Relative Humidity Wind Chill (°F) Heat Index (°F) Pressure Precipitation (in)
Air Dwpt 6 hour altimeter (in) sea level (mb) 1 hr 3 hr 6 hr
Max. Min.
13 22:53 E 7 10.00 A Few Clouds FEW016 84.2 78.8 84% 96 30.17 0.0
13 21:53 E 7 10.00 Thunderstorm in Vicinity FEW030 84.2 78.8 84% 96 30.17 0.0
13 20:53 SE 9 10.00 Thunderstorm in Vicinity SCT030 84.2 78.8 84% 96 30.16 0.0
13 19:53 SE 9 10.00 Partly Cloudy SCT030 86 78.8 79% 99 30.17 0.0
13 18:53 SE 12 10.00 Thunderstorm in Vicinity SCT021 87.8 78.8 75% 102 30.15 0.0
13 17:53 SE 15 10.00 Partly Cloudy SCT020 89.6 78.8 71% 105 30.14 0.0
13 16:53 SE 15 10.00 Partly Cloudy FEW018 SCT025 89.6 78.8 71% 105 30.13 0.0
13 15:53 SE 14 10.00 A Few Clouds FEW030 91.4 78.8 67% 108 30.15 0.0
13 14:53 SE 12 10.00 Partly Cloudy SCT025 91.4 78.8 67% 108 30.17 0.0
13 13:53 SE 12 10.00 Partly Cloudy SCT025 93.2 80.6 67% 113 30.18 0.0
13 12:53 E 10 10.00 A Few Clouds FEW025 91.4 78.8 67% 108 30.19 0.0
13 11:53 E 8 G 17 10.00 A Few Clouds FEW025 91.4 78.8 67% 108 30.19 0.0
13 10:53 SE 9 G 16 10.00 Fair CLR 89.6 77 67% 103 30.2 0.0
13 07:53 Vrbl 6 10.00 Fair CLR 80.6 77 89% 87 30.18 0.0
13 06:53 Vrbl 6 10.00 Fair CLR 75.2 75.2 100% 73 30.16 0.0
12 22:53 N 5 10.00 Light Rain SCT030 77 77 100% 78 30.17 0.0
12 21:53 Vrbl 5 10.00 Light Rain SCT030 77 75.2 94% 78 30.16 0.0
12 20:53 NW 12 G 17 10.00 Thunderstorm in Vicinity Light Rain BKN030 82.4 75.2 79% 89 30.15 0.0
12 19:53 SE 12 10.00 Partly Cloudy SCT045 84.2 73.4 70% 91 30.13 0.0
12 18:53 SE 12 G 18 10.00 Thunderstorm in Vicinity SCT045 86 73.4 66% 93 30.1 0.0
12 17:53 SE 12 G 18 10.00 Partly Cloudy SCT050 89.6 73.4 59% 98 30.09 0.0
12 16:53 SE 12 G 17 10.00 Partly Cloudy SCT030 91.4 73.4 56% 100 30.08 0.0
12 15:53 SE 14 10.00 Partly Cloudy SCT030 91.4 73.4 56% 100 30.09 0.0
12 14:53 SE 14 10.00 A Few Clouds FEW045 91.4 73.4 56% 100 30.1 0.0
12 13:53 S 12 G 17 10.00 Fair CLR 87.8 73.4 62% 96 30.12 0.0
12 12:53 S 7 10.00 Fair CLR 86 73.4 66% 93 30.13 0.0
12 11:53 S 7 10.00 Fair CLR 87.8 73.4 62% 96 30.13 0.0
12 10:53 S 6 10.00 A Few Clouds FEW075 86 73.4 66% 93 30.13 0.0
12 09:53 NW 6 10.00 Fair CLR 80.6 71.6 74% 85 30.1 0.0
12 08:53 W 6 10.00 Fair CLR 78.8 71.6 79% 82 30.08 0.0
12 07:53 NW 6 10.00 Fair CLR 77 71.6 83% 78 30.07 0.0
11 22:53 SW 6 10.00 A Few Clouds FEW110 78.8 71.6 79% 82 30.03 0.0
11 18:53 SW 6 9.00 Fair CLR 80.6 73.4 79% 85 30 0.0
11 17:53 SW 12 10.00 Fair CLR 78.8 71.6 79% 82 29.99 0.0
11 16:53 SW 12 10.00 Rain SCT036 78.8 71.6 79% 82 30 0.0
11 15:53 NW 12 10.00 Rain SCT036 77 68 74% 79 30.02 0.0
11 14:53 W 12 G 17 10.00 Partly Cloudy SCT036 80.6 73.4 79% 85 30.01 0.0
11 13:53 SW 8 10.00 Partly Cloudy SCT040 87.8 75.2 66% 98 30 0.0
11 12:53 SW 8 10.00 Partly Cloudy SCT040 89.6 75.2 63% 100 30.01 0.0
11 11:53 SW 6 10.00 Partly Cloudy SCT040 89.6 73.4 59% 98 30.03 0.0
11 10:53 SW 6 10.00 Partly Cloudy SCT040 87.8 73.4 62% 96 30.02 0.0
11 09:53 SW 6 10.00 Partly Cloudy SCT040 82.4 73.4 74% 88 30.02 0.0
11 08:53 SW 6 10.00 Partly Cloudy SCT040 80.6 73.4 79% 85 30 0.0
11 07:53 W 6 10.00 Partly Cloudy SCT034 77 75.2 94% 78 29.99 0.0
11 06:53 W 6 8.00 Partly Cloudy SCT034 75.2 73.4 94% 74 29.98 0.0
Date Time (edt) Wind (mph) Vis. (mi.) Weather Sky Cond. Air Dwpt Max. Min. Relative Humidity Wind Chill (°F) Heat Index (°F) altimeter (in) sea level (mb) 1 hr 3 hr 6 hr
6 hour
Temperature (ºF) Pressure Precipitation (in)